Regional Weather Roundup
Issued by NWS Columbia, SC

Home | Current Version | Previous Version | Text Only | Print | Product List | Glossary On
Versions: 1 2 3 4 5 6 7 8 9 10 11 12 13 14 15 16 17 18 19 20 21 22 23 24 25 26 27 28 29 30 31 32 33 34 35 36 37 38 39 40 41 42 43 44 45 46 47 48 49 50
588
ASUS42 KCAE 220810
RWRCAE
REGIONAL WEATHER ROUNDUP
NATIONAL WEATHER SERVICE COLUMBIA SC
400 AM EDT SUN OCT 22 2017

NOTE: "FAIR" INDICATES FEW OR NO CLOUDS BELOW 12,000 FEET WITH NO
SIGNIFICANT WEATHER AND/OR OBSTRUCTIONS TO VISIBILITY.

NOT ALL STATIONS ARE QUALITY CONTROLLED BY THE NATIONAL
WEATHER SERVICE. USE DATA WITH CAUTION...ESPECIALLY
DEWPOINT OBSERVATIONS.

SCZ001>056-GAZ040-063>065-077-220900-
...UPSTATE SOUTH CAROLINA...

CITY           SKY/WX    TMP DP  RH WIND       PRES   REMARKS
ANDERSON       PTCLDY    58  53  84 NE5       30.29F
LIBERTY        SUNNY     49  49 100 CALM      30.30S
SPARTANBURG    PTCLDY    54  52  94 N3        30.30F
CLEMSON        PTCLDY    57  57 100 CALM      30.30F
GREENVILLE     CLEAR     60  51  72 N7        30.32S
GREENWOOD      CLEAR     52  52 100 N3        30.30F
GREER          PTCLDY    56  53  90 N3        30.32S
ROCK HILL      CLOUDY    51  51 100 CALM      30.32S FOG
CHESTER        CLOUDY    52  50  93 CALM      30.32S
LAURENS        CLOUDY    50  50 100 CALM      30.29F


...CENTRAL SOUTH CAROLINA...

CITY           SKY/WX    TMP DP  RH WIND       PRES   REMARKS
COLUMBIA APT   MOCLDY    57  55  93 CALM      30.28S
COLUMBIA OWENS CLOUDY    60  58  92 CALM      30.29F
MCENTIRE ANGB  CLOUDY    57  57 100 CALM      30.28F
ORANGEBURG     MOCLDY    62  61  96 NE5       30.27F
SUMTER SHAW    CLOUDY    57  55  92 NE6       30.27S
NEWBERRY       MOSUNNY   54  52  94 CALM      30.32S
AIKEN          CLOUDY    59  57  94 E6        30.31S
BARNWELL         N/A     66  64  94 CALM      30.26F
MANNING        FAIR      61  59  94 MISG      30.28S
CAMDEN         FAIR      54  52  94 CALM      30.30F
LANCASTER      MOSUNNY   54  54 100 CALM      30.32S
WINNSBORO      CLOUDY    63  59  88 SE5       30.29S


...EASTERN AND COASTAL SOUTH CAROLINA...

CITY           SKY/WX    TMP DP  RH WIND       PRES   REMARKS
MYRTLE BEACH   PTCLDY    68  66  93 NE6       30.29F
N MYRTLE BCH   PTCLDY    64  63  96 NE5       30.28S
CONWAY         CLOUDY    59  59 100 CALM      30.29S
MARION         FAIR      54  54 100 E3        30.29F FOG
HARTSVILLE     FAIR      57  57 100 NE3       30.30S
FLORENCE       CLOUDY    60  60 100 NE5       30.29F
DARLINGTON     CLOUDY    53  53 100 CALM      30.30F
CHARLESTON APT PTCLDY    67  66  97 NE6       30.25S
MOUNT PLEASANT FAIR      66  66 100 CALM      30.25F
WALTERBORO     CLOUDY    63  63 100 NE6       30.26S
BEAUFORT       PTCLDY    68  67  96 MISG      30.23F


...EASTERN GEORGIA...

CITY           SKY/WX    TMP DP  RH WIND       PRES   REMARKS
AUGUSTA BUSH F PTCLDY    61  57  87 CALM      30.26S
AUGUSTA DANIEL CLOUDY    67  61  81 NE7       30.27F
THOMSON        MOCLDY    56  53  89 CALM      30.31F
WASHINGTON     FAIR      55  54  94 CALM      30.27F
CLAXTON        CLOUDY    68  66  94 NE3       30.22F
SYLVANIA       CLOUDY    64  64 100 CALM      30.25F
STATESBORO     PTCLDY    66  62  85 CALM      30.23F
SAVANNAH       PTCLDY    69  67  93 NE9       30.21F


...SOUTHERN NORTH CAROLINA...

CITY           SKY/WX    TMP DP  RH WIND       PRES   REMARKS
CHARLOTTE      PTCLDY    53  52  96 CALM      30.32F
MONROE         PTCLDY    52  51  97 CALM      30.31F
WADESBORO      MOSUNNY   50  48  92 CALM      30.31F
RUTHERFORDTON  PTCLDY    51  51 100 CALM      30.33S
ASHEVILLE      CLEAR     48  46  93 CALM      30.35F

$$




USA.gov is the U.S. government's official web portal to all federal, state and local government web resources and services.